Location: Newark
(34.4697°S, 57.8467°W)
Time: 09:01:25
(UTC+00:00)

N. Korean satellite - Pass Details

Date: 28 July 2019
Orbit: 457 x 507 km, 97.2° (Epoch: 25 August)

Event Time Altitude Azimuth Distance (km) Brightness Sun altitude
Rises 09:18:57 0° 5° (N) 2,575 10.5 -18.4°
Reaches altitude 10° 09:21:02 10° 2° (N) 1,694 9.5 -18.0°
Maximum altitude 09:24:39 61° 280° (W) 566 6.5 -17.3°
Enters shadow 09:26:46 23° 206° (SSW) 1,092 8.0 -16.9°
